This demonstration page uses our WeatherBlox Daily Observations layout. Learn more.

Left ArrowRight Arrow

Hourly Observations for April 6, 2018

Temp ( °F °C ) Dew Point ( °F °C ) Humidity (%) Winds ( mph kmh ) Pressure ( in mb ) Visibility ( mi km ) Precip ( " mm )
12:51 am 00:51 Clear 63 17.2 24 -4.4 23 23 NW 9 15 29.77 1008 10 16 0.00 0.00
1:51 am 01:51 Clear 61 16.1 24 -4.4 24 24 NNW 7 11 29.78 1008 10 16 0.00 0.00
2:51 am 02:51 Clear 60 15.6 24 -4.4 25 25 ESE 5 7 29.78 1009 10 16 0.00 0.00
3:51 am 03:51 Clear 60 15.6 23 -5 24 24 SSE 8 13 29.78 1008 10 16 0.00 0.00
4:51 am 04:51 Clear 57 13.9 23 -5 27 27 E 3 6 29.79 1009 10 16 0.00 0.00
5:51 am 05:51 Clear 56 13.3 23 -5 28 28 ESE 6 9 29.80 1009 10 16 0.00 0.00
6:51 am 06:51 Sunny 57 13.9 24 -4.4 28 28 ESE 7 11 29.82 1010 10 16 0.00 0.00
7:51 am 07:51 Sunny 63 17.2 26 -3.3 25 25 E 3 6 29.82 1010 10 16 0.00 0.00
8:51 am 08:51 Sunny 68 20 25 -3.9 20 20 S 3 6 29.82 1010 10 16 0.00 0.00
9:51 am 09:51 Sunny 72 22.2 25 -3.9 17 17 SW 3 6 29.81 1010 10 16 0.00 0.00
10:51 am 10:51 Sunny 78 25.6 24 -4.4 13 13 W 12 19 29.80 1009 10 16 0.00 0.00
11:51 am 11:51 Sunny 79 26.1 24 -4.4 13 13 SW 10 17 29.77 1008 10 16 0.00 0.00
12:51 pm 12:51 Sunny 80 26.7 22 -5.6 11 11 SW 5 7 29.74 1007 10 16 0.00 0.00
1:51 pm 13:51 Sunny 86 30 20 -6.7 9 9 NW 18 30 29.69 1005 10 16 0.00 0.00
2:51 pm 14:51 Sunny 87 30.6 21 -6.1 9 9 NW 18 30 29.66 1005 10 16 0.00 0.00
3:51 pm 15:51 Sunny 86 30 22 -5.6 9 9 WNW 23 37 29.65 1004 10 16 0.00 0.00
4:51 pm 16:51 Sunny 85 29.4 25 -3.9 11 11 WNW 20 31 29.66 1004 10 16 0.00 0.00
5:51 pm 17:51 Sunny 83 28.3 25 -3.9 12 12 WNW 16 26 29.68 1005 10 16 0.00 0.00
6:51 pm 18:51 Clear 80 26.7 25 -3.9 13 13 WNW 15 24 29.69 1006 10 16 0.00 0.00
7:51 pm 19:51 Clear 76 24.4 25 -3.9 15 15 WNW 13 20 29.71 1006 10 16 0.00 0.00
8:51 pm 20:51 Clear 72 22.2 24 -4.4 17 17 NW 12 19 29.73 1007 10 16 0.00 0.00
9:51 pm 21:51 Clear 70 21.1 25 -3.9 18 18 WNW 10 17 29.74 1007 10 16 0.00 0.00
10:51 pm 22:51 Clear 71 21.7 26 -3.3 19 19 NW 13 20 29.73 1007 10 16 0.00 0.00
11:51 pm 23:51 Clear 69 20.6 26 -3.3 20 20 NW 9 15 29.74 1007 10 16 0.00 0.00

Powered by AerisWeather